| time (UTC) | temp F | wind direction | speed MPH | gust MPH | rain 1hr in | rain 24hr in | rain mn in | humidity % | barometer mb |
| 20260902041558 | 60 | 307 | 0.0 | 1.0 | 0.00 | 0.05 | 0.00 | 96 | 1019.5 |
| 20260902041044 | 60 | 0 | 0.0 | 0.0 | 0.00 | 0.05 | 0.00 | 96 | 1019.4 |
| 20260902040545 | 60 | 0 | 0.0 | 1.0 | 0.00 | 0.05 | 0.00 | 96 | 1019.3 |
| 20260902040057 | 60 | 0 | 0.0 | 1.0 | 0.00 | 0.05 | 0.00 | 96 | 1019.3 |
| 20260902035545 | 60 | 0 | 0.0 | 2.0 | 0.00 | 0.05 | 0.05 | 96 | 1019.3 |
| 20260902035047 | 60 | 307 | 0.0 | 2.0 | 0.00 | 0.05 | 0.05 | 96 | 1019.2 |
| 20260902034601 | 60 | 0 | 0.0 | 2.0 | 0.00 | 0.05 | 0.05 | 96 | 1019.1 |
| 20260902034044 | 60 | 0 | 0.0 | 1.0 | 0.00 | 0.05 | 0.05 | 96 | 1019.1 |
| 20260902033544 | 60 | 0 | 0.0 | 1.0 | 0.00 | 0.05 | 0.05 | 96 | 1019.1 |
| 20260902033054 | 60 | 306 | 0.0 | 1.0 | 0.00 | 0.05 | 0.05 | 96 | 1019.0 |
| 20260902032546 | 60 | 0 | 0.0 | 2.0 | 0.00 | 0.05 | 0.05 | 96 | 1019.0 |
| 20260902032045 | 60 | 0 | 0.0 | 2.0 | 0.00 | 0.05 | 0.05 | 96 | 1019.0 |
| 20260902031559 | 60 | 0 | 0.0 | 2.0 | 0.00 | 0.05 | 0.05 | 96 | 1018.8 |
| 20260902031044 | 60 | 0 | 0.0 | 2.0 | 0.00 | 0.05 | 0.05 | 95 | 1018.9 |
| 20260902030545 | 60 | 296 | 0.0 | 2.0 | 0.00 | 0.05 | 0.05 | 95 | 1018.7 |
| 20260902030127 | 60 | 0 | 0.0 | 1.0 | 0.00 | 0.05 | 0.05 | 95 | 1018.7 |
| 20260902025545 | 60 | 0 | 0.0 | 2.0 | 0.00 | 0.05 | 0.05 | 95 | 1018.9 |
| 20260902025046 | 60 | 0 | 0.0 | 2.0 | 0.00 | 0.05 | 0.05 | 95 | 1018.9 |
| 20260902024558 | 60 | 294 | 0.0 | 1.0 | 0.00 | 0.05 | 0.05 | 95 | 1018.8 |
| 20260902024045 | 60 | 0 | 0.0 | 1.0 | 0.00 | 0.05 | 0.05 | 95 | 1019.0 |
| 20260902023544 | 60 | 293 | 0.0 | 1.0 | 0.00 | 0.05 | 0.05 | 95 | 1019.0 |
| 20260902023108 | 60 | 0 | 0.0 | 1.0 | 0.00 | 0.05 | 0.05 | 95 | 1018.9 |
| 20260902022545 | 60 | 0 | 0.0 | 1.0 | 0.00 | 0.05 | 0.05 | 95 | 1018.9 |
| 20260902022045 | 60 | 0 | 0.0 | 1.0 | 0.00 | 0.05 | 0.05 | 95 | 1018.9 |
| 20260902021554 | 60 | 294 | 0.0 | 1.0 | 0.00 | 0.05 | 0.05 | 95 | 1019.0 |
| 20260902021049 | 60 | 293 | 0.0 | 1.0 | 0.00 | 0.05 | 0.05 | 95 | 1019.0 |
| 20260902020545 | 60 | 0 | 0.0 | 1.0 | 0.00 | 0.05 | 0.05 | 94 | 1018.9 |
| 20260902020057 | 60 | 0 | 0.0 | 1.0 | 0.00 | 0.05 | 0.05 | 94 | 1018.9 |
| 20260902015545 | 61 | 0 | 0.0 | 1.0 | 0.00 | 0.05 | 0.05 | 95 | 1019.0 |
| 20260902015045 | 61 | 294 | 0.0 | 1.0 | 0.00 | 0.05 | 0.05 | 95 | 1018.9 |
| 20260902014554 | 61 | 292 | 0.0 | 1.0 | 0.00 | 0.05 | 0.05 | 95 | 1018.9 |
| 20260902014045 | 61 | 0 | 0.0 | 1.0 | 0.00 | 0.05 | 0.05 | 95 | 1018.8 |
| 20260902013544 | 61 | 0 | 0.0 | 1.0 | 0.00 | 0.05 | 0.05 | 95 | 1018.8 |
| 20260902013054 | 61 | 0 | 0.0 | 1.0 | 0.00 | 0.05 | 0.05 | 95 | 1018.8 |
| 20260902012545 | 61 | 290 | 0.0 | 2.0 | 0.00 | 0.05 | 0.05 | 95 | 1018.9 |
| 20260902012045 | 61 | 0 | 0.0 | 2.0 | 0.00 | 0.05 | 0.05 | 95 | 1018.7 |
| 20260902011622 | 61 | 252 | 0.0 | 1.0 | 0.00 | 0.05 | 0.05 | 95 | 1018.4 |
| 20260902011045 | 61 | 0 | 0.0 | 0.0 | 0.00 | 0.05 | 0.05 | 95 | 1018.4 |
| 20260902010544 | 61 | 0 | 0.0 | 1.0 | 0.00 | 0.05 | 0.05 | 95 | 1018.5 |
| 20260902010057 | 61 | 0 | 0.0 | 1.0 | 0.00 | 0.05 | 0.05 | 95 | 1018.7 |
| 20260902005545 | 61 | 251 | 0.0 | 1.0 | 0.00 | 0.05 | 0.05 | 94 | 1018.4 |
| 20260902005045 | 61 | 0 | 0.0 | 1.0 | 0.00 | 0.05 | 0.05 | 94 | 1018.5 |
| 20260902004556 | 61 | 0 | 0.0 | 0.0 | 0.00 | 0.05 | 0.05 | 94 | 1018.6 |
| 20260902004045 | 61 | 0 | 0.0 | 1.0 | 0.00 | 0.05 | 0.05 | 94 | 1018.6 |
| 20260902003545 | 61 | 0 | 0.0 | 1.0 | 0.00 | 0.05 | 0.05 | 94 | 1018.7 |
| 20260902003111 | 61 | 0 | 0.0 | 1.0 | 0.00 | 0.05 | 0.05 | 94 | 1018.8 |
| 20260902002544 | 61 | 0 | 0.0 | 1.0 | 0.00 | 0.05 | 0.05 | 94 | 1018.7 |
| 20260902002045 | 61 | 0 | 0.0 | 1.0 | 0.00 | 0.05 | 0.05 | 94 | 1018.6 |
| 20260902001559 | 61 | 0 | 0.0 | 1.0 | 0.00 | 0.05 | 0.05 | 93 | 1018.5 |
| 20260902001046 | 62 | 0 | 0.0 | 1.0 | 0.00 | 0.05 | 0.05 | 93 | 1018.6 |
| 20260902000545 | 62 | 0 | 0.0 | 1.0 | 0.00 | 0.05 | 0.05 | 93 | 1018.6 |
| 20260901235545 | 62 | 0 | 0.0 | 1.0 | 0.00 | 0.05 | 0.05 | 93 | 1018.5 |
| 20260901235048 | 62 | 0 | 0.0 | 1.0 | 0.00 | 0.05 | 0.05 | 92 | 1018.5 |
| 20260901234601 | 62 | 0 | 0.0 | 1.0 | 0.00 | 0.05 | 0.05 | 92 | 1018.4 |
| 20260901234045 | 62 | 0 | 0.0 | 1.0 | 0.00 | 0.05 | 0.05 | 92 | 1018.4 |
| 20260901233545 | 62 | 0 | 0.0 | 1.0 | 0.00 | 0.05 | 0.05 | 92 | 1018.3 |
| 20260901233105 | 62 | 0 | 0.0 | 0.0 | 0.00 | 0.05 | 0.05 | 92 | 1018.4 |
| 20260901232544 | 62 | 0 | 0.0 | 1.0 | 0.00 | 0.05 | 0.05 | 91 | 1018.4 |
| 20260901232045 | 62 | 0 | 0.0 | 1.0 | 0.00 | 0.05 | 0.05 | 91 | 1018.3 |
| 20260901231617 | 62 | 0 | 0.0 | 1.0 | 0.00 | 0.05 | 0.05 | 91 | 1018.3 |
| 20260901231045 | 62 | 0 | 0.0 | 1.0 | 0.00 | 0.05 | 0.05 | 91 | 1018.3 |
| 20260901230545 | 62 | 0 | 0.0 | 1.0 | 0.00 | 0.05 | 0.05 | 90 | 1018.2 |
| 20260901230110 | 63 | 0 | 0.0 | 1.0 | 0.00 | 0.05 | 0.05 | 90 | 1018.1 |
| 20260901225546 | 63 | 0 | 0.0 | 1.0 | 0.00 | 0.05 | 0.05 | 90 | 1018.1 |
| 20260901225046 | 63 | 0 | 0.0 | 1.0 | 0.00 | 0.05 | 0.05 | 90 | 1017.9 |
| 20260901224600 | 63 | 0 | 0.0 | 1.0 | 0.00 | 0.05 | 0.05 | 90 | 1018.0 |
| 20260901224044 | 63 | 0 | 0.0 | 1.0 | 0.00 | 0.05 | 0.05 | 90 | 1018.0 |
| 20260901223548 | 63 | 0 | 0.0 | 1.0 | 0.00 | 0.05 | 0.05 | 89 | 1017.9 |
| 20260901223058 | 63 | 0 | 0.0 | 1.0 | 0.00 | 0.05 | 0.05 | 89 | 1018.0 |
| 20260901222544 | 63 | 0 | 0.0 | 1.0 | 0.00 | 0.05 | 0.05 | 89 | 1018.1 |
| 20260901222045 | 63 | 0 | 0.0 | 1.0 | 0.00 | 0.05 | 0.05 | 88 | 1018.1 |
| 20260901221617 | 64 | 0 | 0.0 | 1.0 | 0.00 | 0.05 | 0.05 | 88 | 1018.0 |
| 20260901221044 | 64 | 294 | 0.0 | 1.0 | 0.00 | 0.05 | 0.05 | 88 | 1017.9 |
| 20260901220548 | 64 | 0 | 0.0 | 1.0 | 0.00 | 0.05 | 0.05 | 87 | 1018.0 |
| 20260901220121 | 64 | 0 | 0.0 | 1.0 | 0.00 | 0.05 | 0.05 | 87 | 1018.0 |
| 20260901215545 | 64 | 0 | 0.0 | 1.0 | 0.00 | 0.05 | 0.05 | 88 | 1018.0 |
| 20260901215045 | 64 | 0 | 0.0 | 1.0 | 0.00 | 0.05 | 0.05 | 87 | 1017.9 |
| 20260901214556 | 64 | 0 | 0.0 | 1.0 | 0.00 | 0.05 | 0.05 | 86 | 1017.9 |
| 20260901214044 | 64 | 0 | 0.0 | 1.0 | 0.00 | 0.05 | 0.05 | 86 | 1018.0 |
| 20260901213544 | 64 | 0 | 0.0 | 1.0 | 0.00 | 0.05 | 0.05 | 86 | 1018.1 |
| 20260901213108 | 64 | 295 | 0.0 | 1.0 | 0.00 | 0.05 | 0.05 | 88 | 1018.1 |
| 20260901212545 | 64 | 0 | 0.0 | 1.0 | 0.00 | 0.05 | 0.05 | 87 | 1018.0 |
| 20260901212045 | 64 | 0 | 0.0 | 2.0 | 0.00 | 0.05 | 0.05 | 86 | 1017.9 |
| 20260901211553 | 64 | 0 | 0.0 | 2.0 | 0.00 | 0.05 | 0.05 | 88 | 1017.8 |
| 20260901211045 | 64 | 295 | 0.0 | 1.0 | 0.00 | 0.05 | 0.05 | 86 | 1017.8 |
| 20260901210545 | 64 | 0 | 0.0 | 3.0 | 0.00 | 0.05 | 0.05 | 88 | 1017.9 |
| 20260901210116 | 64 | 0 | 0.0 | 3.0 | 0.00 | 0.05 | 0.05 | 87 | 1017.7 |
| 20260901205545 | 64 | 0 | 0.0 | 3.0 | 0.00 | 0.05 | 0.05 | 86 | 1017.7 |
| 20260901205044 | 64 | 0 | 0.0 | 1.0 | 0.00 | 0.05 | 0.05 | 86 | 1017.7 |
| 20260901204608 | 64 | 0 | 0.0 | 1.0 | 0.00 | 0.05 | 0.05 | 86 | 1017.7 |
| 20260901204045 | 64 | 0 | 0.0 | 1.0 | 0.00 | 0.05 | 0.05 | 86 | 1017.8 |
| 20260901203549 | 64 | 236 | 0.0 | 1.0 | 0.00 | 0.05 | 0.05 | 88 | 1017.8 |
| 20260901203103 | 64 | 236 | 0.0 | 1.0 | 0.00 | 0.05 | 0.05 | 86 | 1017.7 |
| 20260901202545 | 65 | 0 | 0.0 | 1.0 | 0.00 | 0.05 | 0.05 | 87 | 1017.6 |
| 20260901202048 | 65 | 0 | 0.0 | 1.0 | 0.00 | 0.05 | 0.05 | 85 | 1017.7 |
| 20260901201559 | 65 | 0 | 0.0 | 1.0 | 0.00 | 0.05 | 0.05 | 85 | 1017.6 |
| 20260901201046 | 65 | 229 | 0.0 | 1.0 | 0.00 | 0.05 | 0.05 | 86 | 1017.6 |
| 20260901200542 | 65 | 295 | 0.0 | 1.0 | 0.00 | 0.05 | 0.05 | 86 | 1017.6 |
| 20260901200122 | 65 | 278 | 0.0 | 1.0 | 0.00 | 0.05 | 0.05 | 85 | 1017.5 |
| 20260901195544 | 65 | 0 | 0.0 | 1.0 | 0.00 | 0.05 | 0.05 | 84 | 1017.6 |
| 20260901195048 | 65 | 0 | 0.0 | 1.0 | 0.00 | 0.05 | 0.05 | 85 | 1017.6 |
| 20260901194609 | 65 | 0 | 0.0 | 1.0 | 0.00 | 0.05 | 0.05 | 86 | 1017.7 |
| 20260901194049 | 65 | 0 | 0.0 | 1.0 | 0.00 | 0.05 | 0.05 | 84 | 1017.8 |
| 20260901193545 | 65 | 0 | 0.0 | 1.0 | 0.00 | 0.05 | 0.05 | 84 | 1017.6 |
| 20260901193059 | 65 | 269 | 0.0 | 1.0 | 0.00 | 0.05 | 0.05 | 86 | 1017.7 |
| 20260901192548 | 65 | 0 | 0.0 | 2.0 | 0.00 | 0.05 | 0.05 | 83 | 1017.6 |
| 20260901192048 | 65 | 0 | 0.0 | 2.0 | 0.00 | 0.05 | 0.05 | 85 | 1017.6 |
| 20260901191636 | 65 | 0 | 0.0 | 2.0 | 0.00 | 0.05 | 0.05 | 85 | 1017.7 |
| 20260901191049 | 65 | 278 | 0.0 | 2.0 | 0.00 | 0.05 | 0.05 | 86 | 1017.8 |
| 20260901190546 | 65 | 0 | 0.0 | 2.0 | 0.00 | 0.05 | 0.05 | 82 | 1017.9 |
| 20260901190107 | 65 | 0 | 0.0 | 0.0 | 0.00 | 0.05 | 0.05 | 85 | 1017.8 |
| 20260901185546 | 65 | 0 | 0.0 | 0.0 | 0.00 | 0.05 | 0.05 | 83 | 1017.7 |
| 20260901185045 | 65 | 0 | 0.0 | 0.0 | 0.00 | 0.05 | 0.05 | 84 | 1017.8 |
| 20260901184555 | 65 | 0 | 0.0 | 0.0 | 0.00 | 0.05 | 0.05 | 87 | 1017.9 |
| 20260901184045 | 65 | 0 | 0.0 | 1.0 | 0.00 | 0.05 | 0.05 | 83 | 1017.8 |
| 20260901183546 | 65 | 0 | 0.0 | 1.0 | 0.00 | 0.05 | 0.05 | 82 | 1017.8 |
| 20260901183057 | 66 | 0 | 0.0 | 1.0 | 0.00 | 0.05 | 0.05 | 82 | 1017.9 |
| 20260901182541 | 66 | 0 | 0.0 | 1.0 | 0.00 | 0.05 | 0.05 | 80 | 1018.0 |
| 20260901182045 | 66 | 0 | 0.0 | 1.0 | 0.00 | 0.05 | 0.05 | 79 | 1017.8 |
| 20260901181614 | 67 | 281 | 0.0 | 1.0 | 0.00 | 0.05 | 0.05 | 80 | 1018.0 |
| 20260901181046 | 67 | 281 | 0.0 | 1.0 | 0.00 | 0.05 | 0.05 | 81 | 1017.9 |
| 20260901180545 | 67 | 0 | 0.0 | 1.0 | 0.00 | 0.05 | 0.05 | 82 | 1017.9 |
| 20260901180103 | 67 | 0 | 0.0 | 3.0 | 0.00 | 0.05 | 0.05 | 80 | 1017.8 |
| 20260901175544 | 67 | 0 | 0.0 | 3.0 | 0.00 | 0.05 | 0.05 | 81 | 1017.8 |
| 20260901175044 | 67 | 281 | 0.0 | 3.0 | 0.00 | 0.05 | 0.05 | 79 | 1017.7 |
| 20260901174556 | 67 | 243 | 0.0 | 2.0 | 0.00 | 0.05 | 0.05 | 79 | 1017.9 |
| 20260901174048 | 67 | 243 | 0.0 | 2.0 | 0.00 | 0.05 | 0.05 | 79 | 1017.7 |
| 20260901173549 | 67 | 240 | 0.0 | 2.0 | 0.00 | 0.05 | 0.05 | 75 | 1017.7 |
| 20260901173054 | 67 | 0 | 0.0 | 2.0 | 0.00 | 0.05 | 0.05 | 78 | 1017.6 |
| 20260901172547 | 67 | 0 | 0.0 | 1.0 | 0.00 | 0.05 | 0.05 | 81 | 1017.7 |
| 20260901172045 | 67 | 252 | 0.0 | 1.0 | 0.00 | 0.05 | 0.05 | 81 | 1017.7 |
| 20260901171605 | 66 | 0 | 0.0 | 1.0 | 0.00 | 0.05 | 0.05 | 78 | 1017.7 |
| 20260901171046 | 66 | 0 | 0.0 | 2.0 | 0.00 | 0.05 | 0.05 | 80 | 1017.9 |
| 20260901170547 | 66 | 0 | 0.0 | 2.0 | 0.00 | 0.05 | 0.05 | 79 | 1017.6 |
| 20260901165544 | 67 | 246 | 0.0 | 2.0 | 0.00 | 0.05 | 0.05 | 77 | 1017.6 |
| 20260901165045 | 67 | 265 | 0.0 | 2.0 | 0.00 | 0.05 | 0.05 | 80 | 1017.8 |
| 20260901164618 | 67 | 266 | 0.0 | 2.0 | 0.00 | 0.05 | 0.05 | 81 | 1017.7 |
| 20260901164045 | 67 | 281 | 0.0 | 4.0 | 0.00 | 0.05 | 0.05 | 80 | 1017.6 |
| 20260901163549 | 67 | 264 | 0.0 | 4.0 | 0.00 | 0.05 | 0.05 | 83 | 1017.7 |
| 20260901163054 | 66 | 326 | 0.0 | 2.0 | 0.00 | 0.05 | 0.05 | 80 | 1017.6 |
| 20260901162546 | 66 | 262 | 0.0 | 2.0 | 0.00 | 0.05 | 0.05 | 80 | 1017.6 |
| 20260901162044 | 66 | 260 | 0.0 | 1.0 | 0.00 | 0.05 | 0.05 | 83 | 1017.8 |
| 20260901161558 | 65 | 0 | 0.0 | 1.0 | 0.00 | 0.05 | 0.05 | 85 | 1017.7 |
| 20260901161047 | 65 | 0 | 0.0 | 4.0 | 0.00 | 0.05 | 0.05 | 83 | 1017.7 |
| 20260901160544 | 65 | 261 | 0.0 | 4.0 | 0.00 | 0.05 | 0.05 | 82 | 1017.8 |
| 20260901160117 | 64 | 0 | 0.0 | 1.0 | 0.00 | 0.05 | 0.05 | 86 | 1017.7 |
| 20260901155545 | 64 | 0 | 0.0 | 1.0 | 0.00 | 0.05 | 0.05 | 88 | 1017.9 |
| 20260901155045 | 63 | 0 | 0.0 | 1.0 | 0.00 | 0.05 | 0.05 | 85 | 1018.0 |
| 20260901154557 | 63 | 289 | 0.0 | 1.0 | 0.00 | 0.05 | 0.05 | 87 | 1018.1 |
| 20260901154042 | 63 | 0 | 0.0 | 1.0 | 0.00 | 0.05 | 0.05 | 87 | 1017.9 |
| 20260901153545 | 62 | 0 | 0.0 | 1.0 | 0.00 | 0.05 | 0.05 | 91 | 1018.0 |
| 20260901153116 | 62 | 315 | 0.0 | 1.0 | 0.00 | 0.05 | 0.05 | 89 | 1017.8 |
| 20260901152541 | 62 | 0 | 0.0 | 1.0 | 0.00 | 0.05 | 0.05 | 89 | 1018.0 |
| 20260901152041 | 62 | 0 | 0.0 | 1.0 | 0.00 | 0.05 | 0.05 | 91 | 1017.8 |
| 20260901151557 | 62 | 303 | 0.0 | 1.0 | 0.00 | 0.05 | 0.05 | 91 | 1017.9 |
| 20260901151045 | 61 | 0 | 0.0 | 1.0 | 0.00 | 0.05 | 0.05 | 92 | 1018.0 |
| 20260901150545 | 61 | 0 | 0.0 | 1.0 | 0.00 | 0.05 | 0.05 | 91 | 1018.2 |
| 20260901150114 | 60 | 0 | 0.0 | 2.0 | 0.00 | 0.05 | 0.05 | 89 | 1018.4 |
| 20260901145542 | 61 | 0 | 0.0 | 2.0 | 0.00 | 0.05 | 0.05 | 86 | 1018.4 |
| 20260901145043 | 61 | 0 | 0.0 | 1.0 | 0.00 | 0.05 | 0.05 | 88 | 1018.5 |
| 20260901144602 | 61 | 0 | 0.0 | 1.0 | 0.00 | 0.05 | 0.05 | 90 | 1018.4 |
| 20260901144044 | 61 | 0 | 0.0 | 1.0 | 0.00 | 0.05 | 0.05 | 92 | 1018.4 |
| 20260901143545 | 60 | 0 | 0.0 | 0.0 | 0.00 | 0.05 | 0.05 | 94 | 1018.1 |
| 20260901143119 | 60 | 0 | 0.0 | 0.0 | 0.00 | 0.05 | 0.05 | 94 | 1018.1 |
| 20260901142546 | 59 | 0 | 0.0 | 0.0 | 0.00 | 0.05 | 0.05 | 93 | 1018.0 |
| 20260901142045 | 59 | 0 | 0.0 | 0.0 | 0.00 | 0.05 | 0.05 | 92 | 1018.0 |
| 20260901141619 | 59 | 0 | 0.0 | 1.0 | 0.00 | 0.05 | 0.05 | 91 | 1018.2 |
| 20260901141045 | 59 | 0 | 0.0 | 1.0 | 0.01 | 0.05 | 0.05 | 90 | 1018.0 |
| 20260901140547 | 59 | 0 | 0.0 | 1.0 | 0.01 | 0.05 | 0.05 | 95 | 1017.8 |
| 20260901140133 | 58 | 0 | 0.0 | 0.0 | 0.02 | 0.05 | 0.05 | 95 | 1017.9 |
| 20260901135549 | 58 | 0 | 0.0 | 0.0 | 0.02 | 0.05 | 0.05 | 95 | 1017.8 |
| 20260901135047 | 58 | 0 | 0.0 | 0.0 | 0.02 | 0.05 | 0.05 | 95 | 1018.0 |
| 20260901134601 | 57 | 0 | 0.0 | 0.0 | 0.02 | 0.05 | 0.05 | 96 | 1017.8 |
| 20260901134046 | 57 | 0 | 0.0 | 0.0 | 0.02 | 0.05 | 0.05 | 96 | 1017.9 |
| 20260901133545 | 56 | 0 | 0.0 | 0.0 | 0.02 | 0.05 | 0.05 | 95 | 1018.1 |
| 20260901133057 | 56 | 0 | 0.0 | 0.0 | 0.02 | 0.05 | 0.05 | 95 | 1018.1 |
| 20260901132547 | 56 | 0 | 0.0 | 0.0 | 0.02 | 0.05 | 0.05 | 95 | 1017.8 |
| 20260901132046 | 56 | 0 | 0.0 | 0.0 | 0.02 | 0.05 | 0.05 | 95 | 1017.5 |
| 20260901131552 | 56 | 0 | 0.0 | 0.0 | 0.02 | 0.05 | 0.05 | 95 | 1017.6 |
| 20260901131045 | 55 | 0 | 0.0 | 0.0 | 0.01 | 0.04 | 0.04 | 94 | 1017.8 |
| 20260901130545 | 55 | 0 | 0.0 | 0.0 | 0.01 | 0.04 | 0.04 | 94 | 1017.9 |
| 20260901130100 | 55 | 0 | 0.0 | 0.0 | 0.00 | 0.03 | 0.03 | 94 | 1018.1 |
| 20260901125545 | 55 | 0 | 0.0 | 0.0 | 0.00 | 0.03 | 0.03 | 94 | 1018.2 |
| 20260901125047 | 55 | 0 | 0.0 | 0.0 | 0.00 | 0.03 | 0.03 | 94 | 1018.3 |
| 20260901124601 | 55 | 0 | 0.0 | 0.0 | 0.00 | 0.03 | 0.03 | 94 | 1018.2 |
| 20260901124046 | 55 | 0 | 0.0 | 0.0 | 0.00 | 0.03 | 0.03 | 94 | 1018.4 |
| 20260901123547 | 56 | 0 | 0.0 | 0.0 | 0.00 | 0.03 | 0.03 | 95 | 1018.2 |
| 20260901123056 | 55 | 0 | 0.0 | 0.0 | 0.00 | 0.03 | 0.03 | 95 | 1018.2 |
| 20260901122544 | 55 | 0 | 0.0 | 1.0 | 0.01 | 0.03 | 0.03 | 94 | 1018.3 |
| 20260901122048 | 55 | 0 | 0.0 | 1.0 | 0.01 | 0.03 | 0.03 | 94 | 1018.3 |
| 20260901121605 | 55 | 0 | 0.0 | 0.0 | 0.01 | 0.03 | 0.03 | 95 | 1018.2 |
| 20260901121046 | 55 | 0 | 0.0 | 1.0 | 0.01 | 0.03 | 0.03 | 95 | 1018.2 |
| 20260901120544 | 55 | 0 | 0.0 | 1.0 | 0.01 | 0.03 | 0.03 | 95 | 1018.3 |
| 20260901120100 | 55 | 0 | 0.0 | 1.0 | 0.02 | 0.03 | 0.03 | 95 | 1018.2 |
| 20260901115546 | 54 | 0 | 0.0 | 0.0 | 0.02 | 0.03 | 0.03 | 95 | 1018.3 |
| 20260901115045 | 54 | 0 | 0.0 | 0.0 | 0.02 | 0.03 | 0.03 | 95 | 1018.3 |
| 20260901114556 | 54 | 0 | 0.0 | 0.0 | 0.02 | 0.03 | 0.03 | 94 | 1018.2 |
| 20260901114047 | 54 | 0 | 0.0 | 0.0 | 0.03 | 0.03 | 0.03 | 94 | 1018.1 |
| 20260901113545 | 54 | 0 | 0.0 | 0.0 | 0.03 | 0.03 | 0.03 | 94 | 1018.0 |
| 20260901113104 | 55 | 0 | 0.0 | 0.0 | 0.03 | 0.03 | 0.03 | 93 | 1017.9 |
| 20260901112545 | 55 | 0 | 0.0 | 0.0 | 0.02 | 0.02 | 0.02 | 93 | 1018.0 |
| 20260901112046 | 55 | 0 | 0.0 | 0.0 | 0.02 | 0.02 | 0.02 | 93 | 1018.2 |
| 20260901111559 | 55 | 0 | 0.0 | 0.0 | 0.02 | 0.02 | 0.02 | 92 | 1018.3 |
| 20260901111045 | 55 | 0 | 0.0 | 0.0 | 0.02 | 0.02 | 0.02 | 91 | 1018.3 |
| 20260901110545 | 55 | 0 | 0.0 | 0.0 | 0.01 | 0.01 | 0.01 | 91 | 1018.0 |
| 20260901110059 | 55 | 0 | 0.0 | 1.0 | 0.01 | 0.01 | 0.01 | 91 | 1018.0 |
| 20260901105544 | 56 | 0 | 0.0 | 1.0 | 0.01 | 0.01 | 0.01 | 90 | 1018.0 |
| 20260901105048 | 56 | 0 | 0.0 | 1.0 | 0.01 | 0.01 | 0.01 | 89 | 1017.9 |
| 20260901104605 | 56 | 0 | 0.0 | 1.0 | 0.01 | 0.01 | 0.01 | 88 | 1018.0 |
| 20260901104045 | 56 | 0 | 0.0 | 1.0 | 0.00 | 0.00 | 0.00 | 87 | 1017.9 |
| 20260901103545 | 57 | 0 | 0.0 | 1.0 | 0.00 | 0.00 | 0.00 | 86 | 1017.9 |
| 20260901103101 | 57 | 0 | 0.0 | 1.0 | 0.00 | 0.00 | 0.00 | 83 | 1017.8 |
| 20260901102546 | 57 | 0 | 0.0 | 1.0 | 0.00 | 0.00 | 0.00 | 82 | 1017.8 |
| 20260901102046 | 58 | 0 | 0.0 | 0.0 | 0.00 | 0.00 | 0.00 | 82 | 1017.7 |
| 20260901101609 | 58 | 0 | 0.0 | 0.0 | 0.00 | 0.00 | 0.00 | 79 | 1017.6 |
| 20260901101045 | 58 | 0 | 0.0 | 0.0 | 0.00 | 0.00 | 0.00 | 79 | 1017.5 |
| 20260901100549 | 58 | 0 | 0.0 | 0.0 | 0.00 | 0.00 | 0.00 | 80 | 1017.6 |
| 20260901100104 | 58 | 0 | 0.0 | 0.0 | 0.00 | 0.00 | 0.00 | 81 | 1017.6 |
| 20260901095545 | 58 | 0 | 0.0 | 0.0 | 0.00 | 0.00 | 0.00 | 80 | 1017.5 |
| 20260901095045 | 58 | 0 | 0.0 | 0.0 | 0.00 | 0.00 | 0.00 | 81 | 1017.6 |
| 20260901094600 | 58 | 0 | 0.0 | 0.0 | 0.00 | 0.00 | 0.00 | 80 | 1017.5 |
| 20260901094045 | 59 | 0 | 0.0 | 1.0 | 0.00 | 0.00 | 0.00 | 82 | 1017.6 |
| 20260901093544 | 59 | 0 | 0.0 | 1.0 | 0.00 | 0.00 | 0.00 | 79 | 1017.5 |
| 20260901093109 | 59 | 0 | 0.0 | 1.0 | 0.00 | 0.00 | 0.00 | 79 | 1017.6 |
| 20260901092544 | 59 | 0 | 0.0 | 0.0 | 0.00 | 0.00 | 0.00 | 75 | 1017.4 |
| 20260901092044 | 59 | 0 | 0.0 | 0.0 | 0.00 | 0.00 | 0.00 | 74 | 1017.4 |
| 20260901091558 | 59 | 0 | 0.0 | 0.0 | 0.00 | 0.00 | 0.00 | 75 | 1017.3 |
| 20260901091045 | 59 | 0 | 0.0 | 0.0 | 0.00 | 0.00 | 0.00 | 79 | 1017.4 |
| 20260901090545 | 59 | 0 | 0.0 | 0.0 | 0.00 | 0.00 | 0.00 | 79 | 1017.5 |
| 20260901090059 | 59 | 0 | 0.0 | 0.0 | 0.00 | 0.00 | 0.00 | 79 | 1017.6 |
| 20260901085545 | 58 | 0 | 0.0 | 0.0 | 0.00 | 0.00 | 0.00 | 80 | 1017.6 |
| 20260901085048 | 58 | 0 | 0.0 | 0.0 | 0.00 | 0.00 | 0.00 | 77 | 1017.6 |
| 20260901084558 | 58 | 0 | 0.0 | 0.0 | 0.00 | 0.00 | 0.00 | 77 | 1017.7 |
| 20260901084045 | 58 | 0 | 0.0 | 0.0 | 0.00 | 0.00 | 0.00 | 77 | 1017.6 |
| 20260901083545 | 58 | 0 | 0.0 | 0.0 | 0.00 | 0.00 | 0.00 | 78 | 1017.4 |
| 20260901083101 | 58 | 0 | 0.0 | 0.0 | 0.00 | 0.00 | 0.00 | 78 | 1017.4 |
| 20260901082545 | 59 | 0 | 0.0 | 0.0 | 0.00 | 0.00 | 0.00 | 78 | 1017.5 |
| 20260901082048 | 59 | 0 | 0.0 | 0.0 | 0.00 | 0.00 | 0.00 | 77 | 1017.4 |
| 20260901081603 | 59 | 0 | 0.0 | 0.0 | 0.00 | 0.00 | 0.00 | 80 | 1017.4 |
| 20260901081044 | 59 | 0 | 0.0 | 0.0 | 0.00 | 0.00 | 0.00 | 77 | 1017.4 |
| 20260901080546 | 59 | 0 | 0.0 | 0.0 | 0.00 | 0.00 | 0.00 | 79 | 1017.5 |
| 20260901080211 | 59 | 0 | 0.0 | 0.0 | 0.00 | 0.00 | 0.00 | 78 | 1017.7 |
| 20260901075545 | 59 | 0 | 0.0 | 0.0 | 0.00 | 0.00 | 0.00 | 78 | 1017.8 |
| 20260901075046 | 59 | 0 | 0.0 | 0.0 | 0.00 | 0.00 | 0.00 | 77 | 1017.7 |
| 20260901074559 | 59 | 0 | 0.0 | 0.0 | 0.00 | 0.00 | 0.00 | 77 | 1017.6 |
| 20260901074044 | 59 | 0 | 0.0 | 0.0 | 0.00 | 0.00 | 0.00 | 77 | 1017.7 |
| 20260901073545 | 59 | 0 | 0.0 | 0.0 | 0.00 | 0.00 | 0.00 | 77 | 1017.7 |
| 20260901073102 | 59 | 0 | 0.0 | 0.0 | 0.00 | 0.00 | 0.00 | 78 | 1017.8 |
| 20260901072546 | 59 | 0 | 0.0 | 0.0 | 0.00 | 0.00 | 0.00 | 80 | 1017.7 |
| 20260901072047 | 59 | 0 | 0.0 | 0.0 | 0.00 | 0.00 | 0.00 | 79 | 1017.7 |
| 20260901071603 | 59 | 0 | 0.0 | 0.0 | 0.00 | 0.00 | 0.00 | 78 | 1017.6 |
| 20260901071046 | 59 | 0 | 0.0 | 0.0 | 0.00 | 0.00 | 0.00 | 78 | 1017.7 |
| 20260901070545 | 59 | 0 | 0.0 | 0.0 | 0.00 | 0.00 | 0.00 | 81 | 1017.6 |
| 20260901070134 | 59 | 0 | 0.0 | 0.0 | 0.00 | 0.00 | 0.00 | 80 | 1017.7 |
| 20260901065546 | 59 | 0 | 0.0 | 0.0 | 0.00 | 0.00 | 0.00 | 80 | 1017.8 |
| 20260901065045 | 60 | 0 | 0.0 | 0.0 | 0.00 | 0.00 | 0.00 | 82 | 1017.9 |
| 20260901064612 | 60 | 0 | 0.0 | 0.0 | 0.00 | 0.00 | 0.00 | 78 | 1017.9 |
| 20260901064045 | 60 | 0 | 0.0 | 0.0 | 0.00 | 0.00 | 0.00 | 79 | 1018.0 |
| 20260901063546 | 60 | 0 | 0.0 | 0.0 | 0.00 | 0.00 | 0.00 | 78 | 1018.0 |
| 20260901063108 | 60 | 0 | 0.0 | 0.0 | 0.00 | 0.00 | 0.00 | 77 | 1018.1 |
| 20260901062549 | 60 | 0 | 0.0 | 0.0 | 0.00 | 0.00 | 0.00 | 77 | 1018.1 |
| 20260901062044 | 59 | 0 | 0.0 | 0.0 | 0.00 | 0.00 | 0.00 | 77 | 1018.0 |
| 20260901061611 | 59 | 0 | 0.0 | 0.0 | 0.00 | 0.00 | 0.00 | 77 | 1018.1 |
| 20260901061045 | 59 | 0 | 0.0 | 0.0 | 0.00 | 0.00 | 0.00 | 78 | 1018.3 |
| 20260901060547 | 59 | 0 | 0.0 | 0.0 | 0.00 | 0.00 | 0.00 | 78 | 1018.4 |
| 20260901055544 | 59 | 0 | 0.0 | 0.0 | 0.00 | 0.00 | 0.00 | 78 | 1018.4 |
| 20260901055045 | 60 | 0 | 0.0 | 0.0 | 0.00 | 0.00 | 0.00 | 77 | 1018.1 |
| 20260901054609 | 60 | 0 | 0.0 | 0.0 | 0.00 | 0.00 | 0.00 | 75 | 1018.3 |
| 20260901054046 | 60 | 0 | 0.0 | 0.0 | 0.00 | 0.00 | 0.00 | 77 | 1018.3 |
| 20260901053548 | 60 | 0 | 0.0 | 0.0 | 0.00 | 0.00 | 0.00 | 76 | 1018.4 |
| 20260901053108 | 60 | 0 | 0.0 | 0.0 | 0.00 | 0.00 | 0.00 | 79 | 1018.4 |
| 20260901052545 | 60 | 0 | 0.0 | 0.0 | 0.00 | 0.00 | 0.00 | 78 | 1018.5 |
| 20260901052045 | 60 | 0 | 0.0 | 0.0 | 0.00 | 0.00 | 0.00 | 76 | 1018.6 |
| 20260901051600 | 60 | 0 | 0.0 | 0.0 | 0.00 | 0.00 | 0.00 | 77 | 1018.5 |
| 20260901051046 | 59 | 0 | 0.0 | 0.0 | 0.00 | 0.00 | 0.00 | 77 | 1018.4 |
| 20260901050547 | 59 | 0 | 0.0 | 0.0 | 0.00 | 0.00 | 0.00 | 76 | 1018.5 |
| 20260901050100 | 59 | 0 | 0.0 | 0.0 | 0.00 | 0.00 | 0.00 | 77 | 1018.5 |
| 20260901045546 | 59 | 0 | 0.0 | 0.0 | 0.00 | 0.00 | 0.00 | 76 | 1018.5 |
| 20260901045046 | 59 | 0 | 0.0 | 0.0 | 0.00 | 0.00 | 0.00 | 77 | 1018.6 |
| 20260901044623 | 59 | 0 | 0.0 | 0.0 | 0.00 | 0.00 | 0.00 | 78 | 1018.6 |
| 20260901044045 | 59 | 0 | 0.0 | 0.0 | 0.00 | 0.00 | 0.00 | 76 | 1018.8 |
| 20260901043546 | 59 | 0 | 0.0 | 0.0 | 0.00 | 0.00 | 0.00 | 76 | 1018.7 |
| 20260901043055 | 59 | 0 | 0.0 | 0.0 | 0.00 | 0.00 | 0.00 | 78 | 1018.6 |
| 20260901042545 | 59 | 0 | 0.0 | 0.0 | 0.00 | 0.00 | 0.00 | 77 | 1018.6 |
| 20260901042044 | 59 | 0 | 0.0 | 0.0 | 0.00 | 0.00 | 0.00 | 77 | 1018.6 |